Station Historical Data
Daily Summary for November 21, 2017 Units:  Metric    English   Both
« Previous Day
Next Day »
Daily Weekly Monthly Yearly Custom
  High: Low: Average:
Temperature: 12.6 °C 3.5 °C 7.8 °C
Dew Point: 4.7 °C -4.7 °C -0.4 °C
Humidity: 87% 39% 57%
Wind Speed: 29km/h 0km/h 11.9km/h
Wind Gust: 46.7km/h - -
Wind- - SW
Pressure: 1012.8 hPa 1006.7 hPa -
Precipitation: 2.29 mm    
Historical Graphs
 
 
Tabular Data for November 21, 2017
Time Temperature Dew Point Pressure Wind Wind Speed Wind Gust Humidity Rainfall Rate (Hourly)
00:04 3.7 °C -3.2 °C 1012.4 hPa SW 8 km/h 17.7 km/h 61% 0 mm
00:09 3.6 °C -3.2 °C 1012.4 hPa SSW 8 km/h 12.9 km/h 61% 0 mm
00:34 3.5 °C -3.1 °C 1012.4 hPa SSW 8 km/h 19.3 km/h 62% 0 mm
00:39 3.5 °C -3.3 °C 1012.4 hPa SSW 3.2 km/h 12.9 km/h 61% 0 mm
00:44 3.5 °C -3.3 °C 1012.4 hPa SW 6.4 km/h 11.3 km/h 61% 0 mm
00:49 3.5 °C -3.3 °C 1012.4 hPa SSW 8 km/h 14.5 km/h 61% 0 mm
00:54 3.5 °C -3.3 °C 1012.4 hPa SSW 6.4 km/h 20.9 km/h 61% 0 mm
00:59 3.6 °C -3.3 °C 1012.4 hPa SSW 8 km/h 20.9 km/h 61% 0 mm
01:04 3.6 °C -3.2 °C 1012.1 hPa SW 8 km/h 14.5 km/h 61% 0 mm
01:14 3.6 °C -3.3 °C 1012.1 hPa SW 4.8 km/h 16.1 km/h 61% 0 mm
01:19 3.5 °C -3.6 °C 1012.1 hPa South 4.8 km/h 16.1 km/h 60% 0 mm
01:24 3.5 °C -3.6 °C 1012.1 hPa South 4.8 km/h 12.9 km/h 60% 0 mm
01:29 3.6 °C -3.5 °C 1012.1 hPa SSW 8 km/h 17.7 km/h 60% 0 mm
01:34 3.7 °C -3.4 °C 1012.1 hPa SSW 8 km/h 19.3 km/h 60% 0 mm
01:39 3.8 °C -3.5 °C 1012.1 hPa SSW 9.7 km/h 19.3 km/h 59% 0 mm
01:44 3.8 °C -3.5 °C 1011.7 hPa SSW 9.7 km/h 20.9 km/h 59% 0 mm
01:54 3.9 °C -3.6 °C 1011.7 hPa SSW 12.9 km/h 19.3 km/h 58% 0 mm
01:59 3.9 °C -3.6 °C 1011.7 hPa SSW 9.7 km/h 20.9 km/h 58% 0 mm
02:04 3.9 °C -3.6 °C 1011.7 hPa SSW 11.3 km/h 22.5 km/h 58% 0 mm
02:09 3.9 °C -3.8 °C 1011.7 hPa SSW 9.7 km/h 22.5 km/h 57% 0 mm
02:14 3.9 °C -3.9 °C 1011.7 hPa SSW 9.7 km/h 20.9 km/h 57% 0 mm
02:19 3.9 °C -3.8 °C 1011.7 hPa SW 4.8 km/h 16.1 km/h 57% 0 mm
02:34 3.9 °C -3.8 °C 1011.7 hPa SSW 8 km/h 17.7 km/h 57% 0 mm
02:39 4 °C -4 °C 1011.7 hPa SSW 6.4 km/h 17.7 km/h 56% 0 mm
02:44 3.9 °C -4.1 °C 1011.7 hPa SSW 6.4 km/h 14.5 km/h 56% 0 mm
02:49 3.9 °C -4.1 °C 1011.7 hPa SSW 6.4 km/h 14.5 km/h 56% 0 mm
02:54 3.9 °C -4.1 °C 1011.7 hPa SSW 8 km/h 19.3 km/h 56% 0 mm
02:59 3.9 °C -4.1 °C 1011.7 hPa SSW 6.4 km/h 12.9 km/h 56% 0 mm
03:04 3.9 °C -4.1 °C 1011.4 hPa SSW 6.4 km/h 19.3 km/h 56% 0 mm
03:14 3.9 °C -4.1 °C 1011.4 hPa South 6.4 km/h 20.9 km/h 56% 0 mm
03:19 4 °C -4 °C 1011.1 hPa South 9.7 km/h 19.3 km/h 56% 0 mm
03:24 3.9 °C -4.3 °C 1011.1 hPa South 6.4 km/h 20.9 km/h 55% 0 mm
03:29 4 °C -4.2 °C 1011.1 hPa SW 4.8 km/h 24.1 km/h 55% 0 mm
03:39 4 °C -4.2 °C 1010.7 hPa SSW 9.7 km/h 20.9 km/h 55% 0 mm
03:44 4.1 °C -4.2 °C 1010.7 hPa SSW 9.7 km/h 19.3 km/h 55% 0 mm
03:49 4.1 °C -4.4 °C 1010.7 hPa SSW 9.7 km/h 19.3 km/h 54% 0 mm
03:59 4.1 °C -4.4 °C 1010.7 hPa SSW 11.3 km/h 14.5 km/h 54% 0 mm
04:04 4.1 °C -4.4 °C 1010.7 hPa SSW 4.8 km/h 16.1 km/h 54% 0 mm
04:09 4.1 °C -4.4 °C 1010.7 hPa South 9.7 km/h 19.3 km/h 54% 0 mm
04:14 3.9 °C -4.6 °C 1010.7 hPa SSW 6.4 km/h 19.3 km/h 54% 0 mm
04:29 4.2 °C -4.6 °C 1010.4 hPa SSW 9.7 km/h 17.7 km/h 53% 0 mm
04:34 4.1 °C -4.6 °C 1010.4 hPa SSW 8 km/h 19.3 km/h 53% 0 mm
04:44 4.2 °C -4.6 °C 1010.4 hPa SSW 14.5 km/h 19.3 km/h 53% 0 mm
04:49 4.2 °C -4.5 °C 1010.4 hPa SSW 6.4 km/h 17.7 km/h 53% 0 mm
04:54 4.3 °C -4.4 °C 1010.4 hPa SSW 3.2 km/h 17.7 km/h 53% 0 mm
04:59 4.3 °C -4.4 °C 1010.4 hPa SSW 11.3 km/h 22.5 km/h 53% 0 mm
05:04 4.3 °C -4.7 °C 1010.4 hPa South 8 km/h 16.1 km/h 52% 0 mm
05:09 4.4 °C -4.6 °C 1010.4 hPa SW 17.7 km/h 19.3 km/h 52% 0 mm
05:14 4.5 °C -4.5 °C 1010.4 hPa SSE 6.4 km/h 22.5 km/h 52% 0 mm
05:19 4.6 °C -4.4 °C 1010.4 hPa SSW 6.4 km/h 25.7 km/h 52% 0 mm
05:24 4.6 °C -4.4 °C 1010 hPa SSW 9.7 km/h 25.7 km/h 52% 0 mm
05:29 4.6 °C -4.7 °C 1010 hPa SSW 9.7 km/h 22.5 km/h 51% 0 mm
05:44 4.7 °C -4.6 °C 1010 hPa SSW 9.7 km/h 20.9 km/h 51% 0 mm
05:59 4.9 °C -4.4 °C 1009.7 hPa SSW 11.3 km/h 25.7 km/h 51% 0 mm
06:14 4.9 °C -4.4 °C 1009.7 hPa SSW 11.3 km/h 24.1 km/h 51% 0 mm
06:19 4.9 °C -4.4 °C 1009.7 hPa South 9.7 km/h 17.7 km/h 51% 0 mm
06:24 4.8 °C -4.4 °C 1009.7 hPa WSW 19.3 km/h 19.3 km/h 51% 0 mm
06:29 4.9 °C -4.4 °C 1009.7 hPa SSW 11.3 km/h 22.5 km/h 51% 0 mm
06:34 4.9 °C -4.4 °C 1009.7 hPa SSW 11.3 km/h 22.5 km/h 51% 0 mm
06:39 4.8 °C -4.4 °C 1009.4 hPa SSW 9.7 km/h 22.5 km/h 51% 0 mm
06:44 4.9 °C -4.4 °C 1009.4 hPa SSW 11.3 km/h 22.5 km/h 51% 0 mm
06:59 4.8 °C -4.4 °C 1009.4 hPa South 16.1 km/h 22.5 km/h 51% 0 mm
07:14 4.8 °C -4.4 °C 1009 hPa South 17.7 km/h 27.4 km/h 51% 0 mm
07:19 4.9 °C -4.4 °C 1009 hPa SSW 14.5 km/h 25.7 km/h 51% 0 mm
07:24 4.9 °C -4.4 °C 1009 hPa SW 11.3 km/h 24.1 km/h 51% 0 mm
07:29 4.9 °C -4.4 °C 1009 hPa SSW 12.9 km/h 24.1 km/h 51% 0 mm
07:39 4.8 °C -4.4 °C 1009 hPa South 11.3 km/h 29 km/h 51% 0 mm
07:44 4.9 °C -4.4 °C 1009 hPa SSW 9.7 km/h 24.1 km/h 51% 0 mm
08:04 5.1 °C -4.2 °C 1008.7 hPa South 14.5 km/h 24.1 km/h 51% 0 mm
08:09 5.2 °C -4.1 °C 1008.7 hPa SSW 11.3 km/h 27.4 km/h 51% 0 mm
08:14 5.3 °C -4 °C 1008.7 hPa South 4.8 km/h 20.9 km/h 51% 0 mm
08:19 5.5 °C -4.1 °C 1008.7 hPa SW 12.9 km/h 20.9 km/h 50% 0 mm
08:24 5.8 °C -4.1 °C 1008.7 hPa SSW 8 km/h 24.1 km/h 49% 0 mm
08:34 6.1 °C -3.9 °C 1008.7 hPa SW 11.3 km/h 22.5 km/h 49% 0 mm
08:39 6.2 °C -4.1 °C 1008.4 hPa SSW 9.7 km/h 33.8 km/h 48% 0 mm
08:49 6.5 °C -4 °C 1008.4 hPa SSW 11.3 km/h 24.1 km/h 47% 0 mm
08:59 6.8 °C -3.7 °C 1008.4 hPa WSW 14.5 km/h 25.7 km/h 47% 0 mm
09:04 6.9 °C -3.9 °C 1008.4 hPa South 14.5 km/h 27.4 km/h 46% 0 mm
09:09 7.1 °C -3.4 °C 1008 hPa SSW 9.7 km/h 37 km/h 47% 0 mm
09:14 7.3 °C -3.6 °C 1008 hPa SSW 12.9 km/h 37 km/h 46% 0 mm
09:19 7.4 °C -3.7 °C 1007.7 hPa SSW 12.9 km/h 30.6 km/h 45% 0 mm
09:24 7.7 °C -3.2 °C 1007.7 hPa SSW 14.5 km/h 32.2 km/h 46% 0 mm
09:29 7.9 °C -3.3 °C 1007.7 hPa SSW 12.9 km/h 32.2 km/h 45% 0 mm
09:34 8.1 °C -3.2 °C 1008 hPa SW 20.9 km/h 25.7 km/h 45% 0 mm
09:39 8.1 °C -3.4 °C 1008 hPa SW 19.3 km/h 25.7 km/h 44% 0 mm
09:44 8.4 °C -2.8 °C 1008 hPa SSW 12.9 km/h 25.7 km/h 45% 0 mm
09:49 8.6 °C -3 °C 1008 hPa WSW 11.3 km/h 29 km/h 44% 0 mm
10:04 9 °C -2.6 °C 1007.7 hPa SSW 20.9 km/h 32.2 km/h 44% 0 mm
10:09 9.2 °C -2.4 °C 1008 hPa SSE 11.3 km/h 32.2 km/h 44% 0 mm
10:19 9.5 °C -2.8 °C 1008 hPa SSW 12.9 km/h 25.7 km/h 42% 0 mm
10:24 9.7 °C -2.3 °C 1008 hPa SSW 12.9 km/h 25.7 km/h 43% 0 mm
10:29 9.8 °C -2.2 °C 1008 hPa SSW 14.5 km/h 33.8 km/h 43% 0 mm
10:34 9.7 °C -2.7 °C 1008 hPa SSW 12.9 km/h 24.1 km/h 42% 0 mm
10:39 9.8 °C -2.6 °C 1008 hPa SSW 27.4 km/h 41.8 km/h 42% 0 mm
10:44 9.8 °C -2.5 °C 1008 hPa SSW 22.5 km/h 30.6 km/h 42% 0 mm
10:49 10.1 °C -1.7 °C 1008 hPa SW 17.7 km/h 22.5 km/h 44% 0 mm
10:54 10.3 °C -2.1 °C 1008 hPa SW 12.9 km/h 27.4 km/h 42% 0 mm
11:04 10.5 °C -1.9 °C 1008 hPa SW 16.1 km/h 35.4 km/h 42% 0 mm
11:09 10.7 °C -1.7 °C 1008 hPa SSE 16.1 km/h 33.8 km/h 42% 0 mm
11:14 10.8 °C -1.3 °C 1007.7 hPa SSW 14.5 km/h 33.8 km/h 43% 0 mm
11:19 10.9 °C -1.5 °C 1007.7 hPa SW 14.5 km/h 33.8 km/h 42% 0 mm
11:39 11.2 °C -1.9 °C 1007.3 hPa SW 9.7 km/h 38.6 km/h 40% 0 mm
11:44 11.2 °C -1.2 °C 1007.3 hPa SW 6.4 km/h 25.7 km/h 42% 0 mm
11:49 11.3 °C -1.4 °C 1007 hPa SSW 12.9 km/h 32.2 km/h 41% 0 mm
11:54 11.6 °C -1.6 °C 1007 hPa SW 16.1 km/h 37 km/h 40% 0 mm
11:59 11.8 °C -1.4 °C 1007 hPa SW 19.3 km/h 38.6 km/h 40% 0 mm
12:04 11.8 °C -1.3 °C 1007 hPa SW 20.9 km/h 38.6 km/h 40% 0 mm
12:09 11.9 °C -0.9 °C 1007 hPa SW 20.9 km/h 45.1 km/h 41% 0 mm
12:19 12.1 °C -1.5 °C 1006.7 hPa SW 17.7 km/h 37 km/h 39% 0 mm
12:24 12.1 °C -1.2 °C 1007 hPa WSW 24.1 km/h 33.8 km/h 40% 0 mm
12:29 12.1 °C -1.5 °C 1007 hPa SW 20.9 km/h 46.7 km/h 39% 0 mm
12:34 12.1 °C -1.4 °C 1007 hPa WSW 22.5 km/h 35.4 km/h 39% 0 mm
12:44 12.2 °C -1.3 °C 1007 hPa West 29 km/h 43.5 km/h 39% 0 mm
12:49 12.2 °C -1.1 °C 1007 hPa SW 16.1 km/h 43.5 km/h 40% 0 mm
12:54 12.3 °C -1.3 °C 1007 hPa SW 22.5 km/h 35.4 km/h 39% 0 mm
13:09 12.5 °C -0.8 °C 1007.3 hPa SW 19.3 km/h 35.4 km/h 40% 0 mm
13:14 12.6 °C -0.7 °C 1007.3 hPa SW 17.7 km/h 32.2 km/h 40% 0 mm
13:19 12.6 °C -0.3 °C 1007.3 hPa SW 16.1 km/h 33.8 km/h 41% 0 mm
13:34 12.4 °C 1.1 °C 1007.7 hPa SW 17.7 km/h 37 km/h 46% 0 mm
13:39 12.4 °C 1.1 °C 1007.3 hPa SW 16.1 km/h 37 km/h 46% 0 mm
13:44 12.3 °C 1.1 °C 1007.7 hPa WSW 14.5 km/h 30.6 km/h 46% 0 mm
13:49 12.3 °C 1.3 °C 1007.7 hPa SSW 17.7 km/h 29 km/h 47% 0 mm
13:54 12.4 °C 1.4 °C 1007.3 hPa SSW 17.7 km/h 35.4 km/h 47% 0 mm
13:59 12.3 °C 1.3 °C 1007.3 hPa WSW 9.7 km/h 35.4 km/h 47% 0 mm
14:04 12.4 °C 1.1 °C 1007.7 hPa SW 14.5 km/h 35.4 km/h 46% 0 mm
14:09 12.4 °C 1.4 °C 1007.7 hPa SW 14.5 km/h 30.6 km/h 47% 0 mm
14:14 12.3 °C 1.3 °C 1007.7 hPa SW 14.5 km/h 30.6 km/h 47% 0 mm
14:29 12.1 °C 1.7 °C 1007.7 hPa SW 16.1 km/h 29 km/h 49% 0 mm
14:44 11.9 °C 2.1 °C 1007.7 hPa WSW 16.1 km/h 35.4 km/h 51% 0 mm
14:49 11.9 °C 2.3 °C 1007.7 hPa WNW 14.5 km/h 27.4 km/h 52% 0 mm
14:54 11.8 °C 2.3 °C 1008 hPa SW 22.5 km/h 30.6 km/h 52% 0 mm
14:59 11.7 °C 2.4 °C 1008 hPa SW 16.1 km/h 32.2 km/h 53% 0 mm
15:04 11.7 °C 2.4 °C 1008 hPa WSW 16.1 km/h 37 km/h 53% 0 mm
15:19 11.8 °C 1.4 °C 1008 hPa WSW 17.7 km/h 30.6 km/h 49% 0 mm
15:24 11.7 °C 1.3 °C 1008 hPa WSW 19.3 km/h 35.4 km/h 49% 0 mm
15:29 11.6 °C 1.5 °C 1008.4 hPa WSW 17.7 km/h 35.4 km/h 50% 0 mm
15:34 11.4 °C 1.7 °C 1008.4 hPa WSW 17.7 km/h 37 km/h 51% 0 mm
15:39 11.4 °C 1.6 °C 1008.4 hPa West 14.5 km/h 27.4 km/h 51% 0 mm
15:44 11.3 °C 1.8 °C 1008.4 hPa WSW 14.5 km/h 30.6 km/h 52% 0 mm
15:54 11.1 °C 1.9 °C 1008.4 hPa SW 14.5 km/h 25.7 km/h 53% 0 mm
15:59 10.9 °C 1.7 °C 1008.7 hPa SSW 11.3 km/h 29 km/h 53% 0 mm
16:04 10.9 °C 2.2 °C 1008.7 hPa West 11.3 km/h 27.4 km/h 55% 0 mm
16:19 10.7 °C 2.7 °C 1009 hPa WSW 14.5 km/h 33.8 km/h 58% 0 mm
16:24 10.6 °C 2.7 °C 1009 hPa WSW 14.5 km/h 30.6 km/h 58% 0 mm
16:29 10.5 °C 2.8 °C 1009 hPa WSW 11.3 km/h 27.4 km/h 59% 0 mm
16:34 10.4 °C 2.8 °C 1009 hPa WSW 14.5 km/h 30.6 km/h 59% 0 mm
16:39 10.4 °C 2.9 °C 1009.4 hPa WSW 14.5 km/h 30.6 km/h 60% 0 mm
16:44 10.4 °C 3.2 °C 1009.4 hPa WSW 14.5 km/h 29 km/h 61% 0 mm
16:49 10.3 °C 3.1 °C 1009.4 hPa WSW 9.7 km/h 27.4 km/h 61% 0 mm
16:54 10.3 °C 3.3 °C 1009.4 hPa WSW 12.9 km/h 25.7 km/h 62% 0 mm
16:59 10.3 °C 3.6 °C 1009.4 hPa WSW 4.8 km/h 25.7 km/h 63% 0 mm
17:04 10.2 °C 3.7 °C 1009.4 hPa WSW 16.1 km/h 32.2 km/h 64% 0 mm
17:09 10.2 °C 3.9 °C 1009.4 hPa SW 19.3 km/h 25.7 km/h 65% 0 mm
17:19 10.2 °C 3.7 °C 1009.4 hPa West 12.9 km/h 27.4 km/h 64% 0 mm
17:24 10.2 °C 3.4 °C 1009.4 hPa WSW 12.9 km/h 27.4 km/h 63% 0 mm
17:29 10.2 °C 3.5 °C 1009.4 hPa WSW 11.3 km/h 30.6 km/h 63% 0 mm
17:34 10.2 °C 3.7 °C 1009.4 hPa WSW 11.3 km/h 30.6 km/h 64% 0 mm
17:39 10.1 °C 3.8 °C 1009.4 hPa WSW 11.3 km/h 24.1 km/h 65% 0 mm
17:49 10 °C 4.2 °C 1009.7 hPa WSW 4.8 km/h 19.3 km/h 67% 0 mm
17:59 9.9 °C 4.3 °C 1009.7 hPa SW 20.9 km/h 22.5 km/h 68% 0 mm
18:14 9.8 °C 4.3 °C 1010 hPa WSW 11.3 km/h 20.9 km/h 69% 0 mm
18:19 9.7 °C 4.4 °C 1010 hPa WSW 14.5 km/h 19.3 km/h 70% 0 mm
18:24 9.7 °C 4.4 °C 1010 hPa WSW 9.7 km/h 20.9 km/h 70% 0 mm
18:29 9.7 °C 4.7 °C 1010 hPa WSW 9.7 km/h 25.7 km/h 71% 0 mm
18:34 9.6 °C 4.6 °C 1010 hPa WSW 9.7 km/h 25.7 km/h 71% 0 mm
18:44 9.4 °C 4.4 °C 1010.4 hPa West 6.4 km/h 12.9 km/h 71% 0 mm
18:54 9.6 °C 4.6 °C 1010 hPa WSW 11.3 km/h 22.5 km/h 71% 0 mm
18:59 9.6 °C 4.4 °C 1010.4 hPa West 22.5 km/h 27.4 km/h 70% 0 mm
19:09 9.8 °C 4.2 °C 1010.4 hPa WSW 11.3 km/h 27.4 km/h 68% 0 mm
19:14 9.8 °C 4.2 °C 1010.4 hPa WSW 12.9 km/h 27.4 km/h 68% 0 mm
19:19 9.8 °C 4.2 °C 1010.4 hPa WSW 11.3 km/h 25.7 km/h 68% 0 mm
19:39 9.9 °C 4.7 °C 1010.4 hPa WSW 11.3 km/h 29 km/h 70% 0 mm
19:44 9.9 °C 4.7 °C 1010.4 hPa WSW 12.9 km/h 29 km/h 70% 0 mm
19:49 9.9 °C 4.7 °C 1010.4 hPa WNW 8 km/h 27.4 km/h 70% 0 mm
19:54 9.9 °C 4.7 °C 1010.4 hPa SW 9.7 km/h 25.7 km/h 70% 0 mm
19:59 9.9 °C 4.7 °C 1010.4 hPa WSW 4.8 km/h 22.5 km/h 70% 0 mm
20:04 9.9 °C 4.7 °C 1010.4 hPa West 19.3 km/h 24.1 km/h 70% 0 mm
20:09 9.9 °C 4.4 °C 1010.4 hPa WSW 12.9 km/h 30.6 km/h 69% 0 mm
20:14 9.9 °C 4.5 °C 1010.4 hPa WSW 16.1 km/h 33.8 km/h 69% 0 mm
20:19 9.9 °C 4.5 °C 1010.4 hPa WSW 14.5 km/h 33.8 km/h 69% 0 mm
20:29 9.9 °C 4.5 °C 1010.4 hPa WSW 17.7 km/h 30.6 km/h 69% 0 mm
20:39 9.9 °C 4.5 °C 1010.4 hPa WSW 11.3 km/h 30.6 km/h 69% 0 mm
20:44 9.9 °C 4.7 °C 1010.4 hPa WSW 16.1 km/h 30.6 km/h 70% 0 mm
20:49 9.8 °C 4.6 °C 1010.4 hPa West 12.9 km/h 38.6 km/h 70% 0 mm
20:59 9.7 °C 4.7 °C 1010.4 hPa West 11.3 km/h 22.5 km/h 71% 0 mm
21:04 9.6 °C 4.6 °C 1010.7 hPa WNW 8 km/h 29 km/h 71% 0 mm
21:09 9.4 °C 4.4 °C 1010.7 hPa West 11.3 km/h 29 km/h 71% 0 mm
21:14 9.2 °C 4.2 °C 1010.7 hPa West 14.5 km/h 29 km/h 71% 0 mm
21:19 9.1 °C 4.1 °C 1010.7 hPa West 12.9 km/h 29 km/h 71% 0 mm
21:39 8.6 °C 4.2 °C 1011.1 hPa West 4.8 km/h 20.9 km/h 74% 0 mm
21:44 8.3 °C 4.2 °C 1011.1 hPa WSW 4.8 km/h 33.8 km/h 75% 0 mm
21:49 8.1 °C 4.1 °C 1011.1 hPa West 11.3 km/h 33.8 km/h 76% 0 mm
21:54 7.8 °C 4.1 °C 1011.1 hPa West 11.3 km/h 27.4 km/h 77% 0.25 mm
21:59 7.6 °C 3.9 °C 1011.1 hPa West 11.3 km/h 29 km/h 78% 0.25 mm
22:19 7 °C 4.1 °C 1011.4 hPa West 6.4 km/h 14.5 km/h 82% 1.02 mm
22:24 6.8 °C 4 °C 1011.7 hPa West 8 km/h 19.3 km/h 82% 1.02 mm
22:29 6.7 °C 4.1 °C 1011.7 hPa West 8 km/h 19.3 km/h 83% 1.27 mm
22:34 6.6 °C 3.9 °C 1011.7 hPa West 8 km/h 19.3 km/h 83% 1.52 mm
22:44 6.2 °C 3.7 °C 1011.7 hPa West 11.3 km/h 19.3 km/h 84% 1.52 mm
22:54 5.4 °C 2.9 °C 1011.7 hPa WNW 11.3 km/h 22.5 km/h 84% 1.52 mm
23:04 5.2 °C 2.8 °C 1012.1 hPa WNW 9.7 km/h 19.3 km/h 85% 1.27 mm
23:14 5.1 °C 2.7 °C 1012.1 hPa West 3.2 km/h 11.3 km/h 85% 1.02 mm
23:19 5.1 °C 2.9 °C 1012.4 hPa WNW 3.2 km/h 8 km/h 86% 0.76 mm
23:24 5 °C 2.8 °C 1012.4 hPa WNW 6.4 km/h 11.3 km/h 86% 1.02 mm
23:29 4.9 °C 2.8 °C 1012.4 hPa West 4.8 km/h 11.3 km/h 86% 0.76 mm
23:34 4.9 °C 2.9 °C 1012.4 hPa West 6.4 km/h 12.9 km/h 87% 0.51 mm
23:39 4.8 °C 2.8 °C 1012.8 hPa NW 4.8 km/h 8 km/h 87% 0.76 mm
23:44 4.7 °C 2.7 °C 1012.8 hPa Calm   8 km/h 87% 0.76 mm
23:49 4.6 °C 2.6 °C 1012.8 hPa WNW 6.4 km/h 9.7 km/h 87% 0.76 mm
Buffalo, New York, USA
Compliments of Weather Underground - 2 mb